Hettinger, ND

10:42 AM MST on February 27, 2017 (GMT -0700)
Hettinger Municipal

Weather History for KHEI - October, 2011

Change the Weather History Date:

Tuesday, October 18, 2011

  Actual Average Record
Temperature  
Mean Temperature 41 °F -  
Max Temperature 57 °F 56 °F 82 °F (2000)
Min Temperature 24 °F 29 °F 19 °F (1996)
Degree Days  
Heating Degree Days 24 23  
Month to date heating degree days 226 349  
Since 1 July heating degree days 501 720  
Cooling Degree Days 0 0  
Month to date cooling degree days 16 0  
Year to date cooling degree days 405 376  
Moisture  
Dew Point 24 °F    
Average Humidity 59    
Maximum Humidity 88    
Minimum Humidity 27    
Precipitation  
Precipitation 0.00 in 0.05 in 0.14 in (2007)
Month to date precipitation 0.54 0.61  
Year to date precipitation 15.46 14.53  
Sea Level Pressure  
Sea Level Pressure 30.28 in    
Wind  
Wind Speed 9 mph (NW)    
Max Wind Speed 26 mph    
Max Gust Speed 33 mph    
Visibility 10 miles    
Events      
T = Trace of Precipitation, MM = Missing Value Source: NWS Daily Summary

Daily Weather History Graph

Daily Weather History Graph

Search for Another Location

Airport or City:

Trip Planner

Search our weather history database for the weather conditions in past years. The results will help you decide how hot, cold, wet, or windy it might be!

Date:

Astronomy

Oct. 18, 2011 Rise Set
Actual Time 7:11 AM MDT 5:59 PM MDT
Civil Twilight 6:41 AM MDT 6:29 PM MDT
Nautical Twilight 6:06 AM MDT 7:04 PM MDT
Astronomical Twilight 5:31 AM MDT 7:39 PM MDT
Moon 10:32 PM MDT (10/18) 1:15 PM MDT (10/18)
Length of Visible Light 11h 48m
Length of Day
10h 48m
Waning Gibbous, 64% of the Moon is Illuminated
Oct 18
Waning Gibbous
Oct 19
Last Quarter
Oct 26
New
Nov 2
First Quarter
Nov 10
Full

Hourly Weather History & Observations

Time (MDT) Temp. Windchill Dew Point Humidity Pressure Visibility Wind Dir Wind Speed Gust Speed Precip Events Conditions
12:53 AM 30.0 °F 21.7 °F 23.0 °F 75% 30.22 in 10.0 mi WNW 9.2 mph - N/A   Clear
1:53 AM 30.0 °F 22.4 °F 23.0 °F 75% 30.25 in 10.0 mi NW 8.1 mph - N/A   Clear
3:53 AM 28.0 °F - 21.9 °F 78% 30.27 in 10.0 mi Calm Calm - N/A   Clear
4:53 AM 25.0 °F 20.7 °F 21.0 °F 85% 30.28 in 9.0 mi WNW 3.5 mph - 0.00 in   Clear
5:53 AM 26.1 °F 20.5 °F 21.0 °F 81% 30.30 in 10.0 mi NW 4.6 mph - N/A   Clear
6:53 AM 25.0 °F - 19.9 °F 81% 30.31 in 10.0 mi Calm Calm - N/A   Clear
7:53 AM 26.1 °F 21.9 °F 21.0 °F 81% 30.30 in 10.0 mi WNW 3.5 mph - N/A   Clear
8:53 AM 39.0 °F 34.8 °F 28.9 °F 67% 30.30 in 10.0 mi NW 5.8 mph - N/A   Clear
9:53 AM 48.9 °F - 28.0 °F 44% 30.28 in 10.0 mi NW 16.1 mph 21.9 mph N/A   Clear
11:53 AM 53.1 °F - 24.1 °F 32% 30.29 in 10.0 mi NW 20.7 mph - N/A   Clear
12:53 PM 55.0 °F - 23.0 °F 29% 30.28 in 10.0 mi NW 23.0 mph 31.1 mph N/A   Clear
1:53 PM 55.9 °F - 23.0 °F 28% 30.26 in 10.0 mi NNW 21.9 mph 32.2 mph N/A   Clear
2:53 PM 55.9 °F - 23.0 °F 28% 30.27 in 10.0 mi NNW 21.9 mph 29.9 mph N/A   Partly Cloudy
3:53 PM 55.9 °F - 24.1 °F 29% 30.26 in 10.0 mi NNW 20.7 mph 32.2 mph N/A   Mostly Cloudy
4:53 PM 54.0 °F - 25.0 °F 33% 30.27 in 10.0 mi NNW 16.1 mph 25.3 mph N/A   Mostly Cloudy
5:53 PM 50.0 °F - 26.1 °F 39% 30.29 in 10.0 mi NNW 9.2 mph - N/A   Overcast
7:53 PM 41.0 °F - 28.0 °F 60% 30.31 in 10.0 mi Calm Calm - N/A   Overcast
8:53 PM 36.0 °F 33.3 °F 26.1 °F 67% 30.29 in 10.0 mi West 3.5 mph - N/A   Mostly Cloudy
9:53 PM 33.1 °F - 25.0 °F 72% 30.28 in 10.0 mi Calm Calm - N/A   Scattered Clouds
10:53 PM 30.0 °F - 24.1 °F 79% 30.28 in 10.0 mi Calm Calm - N/A   Clear
11:53 PM 26.1 °F - 21.0 °F 81% 30.27 in 10.0 mi Calm Calm - N/A   Clear